Weather History for LIBP - March, 2013

Change the Weather History Date:

Friday, March 8, 2013

  Actual Average Record
Temperature  
Mean Temperature 51 °F -  
Max Temperature 60 °F 59 °F 71 °F (1998)
Min Temperature 42 °F 41 °F 30 °F (2006)
Degree Days  
Heating Degree Days 14    
Growing Degree Days 1 (Base 50)    
Moisture  
Dew Point 46 °F    
Average Humidity 82    
Maximum Humidity 88    
Minimum Humidity 67    
Precipitation  
Precipitation 0.00 in 0.08 in - ()
Sea Level Pressure  
Sea Level Pressure 29.68 in    
Wind  
Wind Speed 2 mph ()    
Max Wind Speed 9 mph    
Max Gust Speed -    
Visibility 3.4 miles    
Events Fog    
Averages and records for this station are not official NWS values.
T = Trace of Precipitation, MM = Missing Value Source: Averaged Metar Reports

Daily Weather History Graph

Daily Weather History Graph

Search for Another Location

Airport or City:

Trip Planner

Search our weather history database for the weather conditions in past years. The results will help you decide how hot, cold, wet, or windy it might be!

Date:

Astronomy

Mar. 08, 2013 Rise Set
Actual Time 6:27 AM CET 6:01 PM CET
Civil Twilight 5:59 AM CET 6:29 PM CET
Nautical Twilight 5:26 AM CET 7:02 PM CET
Astronomical Twilight 4:53 AM CET 7:34 PM CET
Moon 4:02 AM CET (3/8) 2:33 PM CET (3/8)
Length of Visible Light 12h 30m
Length of Day
11h 34m
Waning Crescent, 14% of the Moon is Illuminated
Mar 8
Waning Crescent
Mar 11
New
Mar 19
First Quarter
Mar 27
Full
Apr 3
Last Quarter

Hourly Weather History & Observations

Time (CET) Temp. Dew Point Humidity Pressure Visibility Wind Dir Wind Speed Gust Speed Precip Events Conditions
12:50 AM 46.4 °F 41.0 °F 81% 29.74 in 1.2 mi Variable 1.2 mph - N/A   Scattered Clouds
1:07 AM 44.6 °F 41.0 °F 87% 29.71 in 1.6 mi Variable 1.2 mph - N/A   Unknown
1:32 AM 46.4 °F 42.8 °F 87% 29.74 in 0.9 mi Variable 1.2 mph - N/A Fog Fog
1:50 AM 46.4 °F 41.0 °F 81% 29.71 in 1.6 mi Variable 2.3 mph - N/A   Mist
2:08 AM 46.4 °F 42.8 °F 87% 29.71 in 1.2 mi Variable 1.2 mph - N/A Fog Mist
2:18 AM 46.4 °F 42.8 °F 87% 29.74 in 1.6 mi Variable 1.2 mph - N/A Fog Mist
2:50 AM 42.8 °F 39.2 °F 87% 29.71 in 1.2 mi Variable 1.2 mph - N/A Fog Mist
3:50 AM 44.6 °F 39.2 °F 81% 29.71 in 1.2 mi Variable 1.2 mph - N/A Fog Mist
4:50 AM 44.6 °F 41.0 °F 87% 29.71 in 1.6 mi Variable 1.2 mph - N/A Fog Mist
5:50 AM 42.8 °F 39.2 °F 87% 29.71 in 1.6 mi Variable 1.2 mph - N/A Fog Mist
6:50 AM 42.8 °F 39.2 °F 87% 29.71 in 1.6 mi Variable 1.2 mph - N/A Fog Scattered Clouds
7:50 AM 48.2 °F 44.6 °F 87% 29.71 in 1.9 mi Variable 1.2 mph - N/A   Partly Cloudy
8:50 AM 51.8 °F 48.2 °F 88% 29.71 in 2.5 mi Variable 1.2 mph - N/A   Mist
9:28 AM 55.4 °F 48.2 °F 77% 29.71 in 3.1 mi Variable 1.2 mph - N/A   Mist
9:50 AM 55.4 °F 51.8 °F 88% 29.71 in 3.1 mi Variable 2.3 mph - N/A   Partly Cloudy
10:50 AM 59.0 °F 50.0 °F 72% 29.68 in 3.7 mi NNE 5.8 mph - N/A   Partly Cloudy
11:50 AM 60.8 °F 50.0 °F 68% 29.68 in 6.2 mi North 9.2 mph - N/A   Partly Cloudy
12:50 PM 59.0 °F 48.2 °F 67% 29.65 in 6.2 mi North 8.1 mph - N/A   Scattered Clouds
1:50 PM 57.2 °F 50.0 °F 77% 29.65 in 5.0 mi NE 9.2 mph - N/A   Mostly Cloudy
2:50 PM 57.2 °F 50.0 °F 77% 29.62 in 5.6 mi NNE 5.8 mph - N/A   Mostly Cloudy
3:50 PM 57.2 °F 50.0 °F 77% 29.62 in 5.6 mi North 6.9 mph - N/A   Mostly Cloudy
4:50 PM 57.2 °F 51.8 °F 82% 29.62 in 4.3 mi Variable 2.3 mph - N/A   Mostly Cloudy
5:50 PM 55.4 °F 50.0 °F 82% 29.62 in 5.0 mi Variable 1.2 mph - N/A   Mostly Cloudy
6:50 PM 57.2 °F 50.0 °F 77% 29.62 in 6.2 mi Variable 3.5 mph - N/A   Light Drizzle
7:50 PM 57.2 °F 48.2 °F 72% 29.62 in 6.2 mi Variable 1.2 mph - N/A   Mostly Cloudy
8:50 PM 55.4 °F 48.2 °F 77% 29.62 in 4.3 mi Variable 2.3 mph - N/A   Mostly Cloudy
9:50 PM 55.4 °F 51.8 °F 88% 29.62 in 5.0 mi Variable 1.2 mph - N/A   Scattered Clouds
10:50 PM 53.6 °F 50.0 °F 88% 29.62 in 4.3 mi Variable 1.2 mph - N/A   Partly Cloudy
11:50 PM 53.6 °F 50.0 °F 88% 29.62 in 4.3 mi Variable 2.3 mph - N/A   Partly Cloudy